NOAA 16 DEB, 41412

Orbit data source: Space-Track

NOAA 16 DEB, 41412 is space debris in SSO originally from a launch on Thu, 21 Sep 2000 UTC launched from the Air Force Western Test Range (AFWTR). Debris objects in space refer to the collection of defunct objects orbiting the Earth. Examples of debris include non-operational satellites, rocket bodies, and fragments generated from explosions, collisions, or faulty payload assembly.

Loading next visibility...
Identifier
41412, 2000-055KR
Orbit
SSO
Country
Flag of USUS
Related business
Manufacturer
Unknown
Mission
Spacecraft
Bus & Motor
Unknown
Mass
Unknown
Launch date (UTC)
2000-09-21 (25 years ago)
Launch vehicle
Unknown
Launch site
Air Force Western Test Range (AFWTR)
Object type
Payload
Rocket body
Debris
Shape & HBR
Unknown shape, 0.1 m
Radar Cross Section
Small (<0.1 m²)

Expand to show TLE details & history
Last TLE update: 13 hours ago

TLE from 13 hours ago
0 NOAA 16 DEB
1 41412U 00055KR  25286.77104760  .00006371  00000-0  27132-2 0  9991
2 41412  98.6366 307.0907 0026714  97.6672 262.7543 14.25289788497121
Epoch: 2025-10-13T18:30Z
TLE epoch observation values (Epoch: 2025-10-13T18:30:18.512Z)
Latitude
-0.00002°
Longitude
6.94452°
Altitude
812.915 km
Speed
7.446 km/s
True Right ascension
20h 28m 21s
True Declination
0° 00' 00"
Sunlit
Object was in daylight at epoch
Visualization orbit readout
Latitude
Unknown
Longitude
Unknown
Altitude
Unknown
Speed
Unknown
Apparent Right ascension
Unknown
Apparent Declination
Unknown
Sunlit
N/A
Visualization observer readout
Local Sidereal Time
01:56:50
Azimuth
Unknown
Elevation
Unknown
Doppler factor
Unknown
Orbital elements
Apogee altitude
823.855 km
Perigee altitude
785.478 km
Semi-major axis
7,182.804 km
Eccentricity
0.00267
Inclination
98.6366°
RAAN
307.0907°
Arg. of periapsis
97.6672°
True anomaly
262.45075°
Mean anomaly
262.7543°
Eccentric anomaly
262.60251°
Mean motion
3.56535 °/min
Orbital period
100.97 mins
BSTAR
0.0027132
Loading maneuver chart data...
Computing Atmospheric mass density...
Loading historical data...
Loading historical data...
Loading historical data...
Loading historical data...
Loading historical data...
Loading historical data...
Loading historical data...

Documentation

Showing up to 5 results
|